This is the latest recevied weather packets stored in our database for station/object W2TAO. If no packets are shown the sender has not sent any weather packets the latest 10 day(s).
| Time | Temp. | Humidity | Pressure | Rain* | Wind** | Luminosity | Snow |
|---|---|---|---|---|---|---|---|
| 1778200332 | 7.22° C | 72% | 1010.5 hPa | 0 mm | - | 0 W/m² | - |
| 1778200029 | 7.22° C | 71% | 1010.3 hPa | 0 mm | - | 0 W/m² | - |
| 1778199727 | 7.78° C | 71% | 1010.4 hPa | 0 mm | - | 0 W/m² | - |
| 1778199422 | 7.78° C | 69% | 1010.4 hPa | 0 mm | - | 0 W/m² | - |
| 1778199118 | 8.33° C | 68% | 1010.3 hPa | 0 mm | - | 1 W/m² | - |
| 1778198814 | 8.89° C | 66% | 1010.3 hPa | 0 mm | - | 2 W/m² | - |
| 1778198511 | 8.89° C | 59% | 1010.2 hPa | 0 mm | - | 3 W/m² | - |
| 1778198208 | 9.44° C | 58% | 1010.2 hPa | 0 mm | - | 6 W/m² | - |
| 1778197905 | 9.44° C | 59% | 1010 hPa | 0 mm | - | 9 W/m² | - |
| 1778197602 | 10° C | 56% | 1010 hPa | 0 mm | - | 12 W/m² | - |
| 1778197298 | 10.56° C | 57% | 1009.9 hPa | 0 mm | - | 15 W/m² | - |
| 1778196995 | 10.56° C | 57% | 1009.9 hPa | 0 mm | - | 18 W/m² | - |
| 1778196694 | 10.56° C | 60% | 1010.1 hPa | 0 mm | - | 24 W/m² | - |
| 1778196390 | 10.56° C | 57% | 1010 hPa | 0 mm | - | 28 W/m² | - |
| 1778196087 | 10.56° C | 57% | 1010.1 hPa | 0 mm | - | 30 W/m² | - |
| 1778195784 | 11.11° C | 50% | 1010.1 hPa | 0 mm | - | 28 W/m² | - |
| 1778195481 | 11.11° C | 53% | 1010 hPa | 0 mm | - | 31 W/m² | - |
| 1778195177 | 11.67° C | 49% | 1009.8 hPa | 0 mm | - | 40 W/m² | - |
| 1778194874 | 11.67° C | 48% | 1010 hPa | 0 mm | - | 47 W/m² | - |
| 1778194569 | 11.67° C | 47% | 1009.8 hPa | 0 mm | - | 47 W/m² | - |
| 1778194266 | 11.67° C | 52% | 1009.9 hPa | 0 mm | - | 43 W/m² | - |
| 1778193961 | 12.22° C | 52% | 1009.6 hPa | 0 mm | - | 42 W/m² | - |
| 1778193658 | 12.22° C | 47% | 1009.7 hPa | 0 mm | - | 63 W/m² | - |
| 1778193354 | 12.22° C | 45% | 1009.7 hPa | 0 mm | - | 69 W/m² | - |
| 1778193051 | 12.22° C | 48% | 1009.8 hPa | 0 mm | - | 50 W/m² | - |
* Rain latest hour (hover to see other rain measurements)
** Current wind speed in m/s (hover to see current wind gust speed)